Theta_e
316 307 303 305 316 315 323 327 323 322 329 326 326 337 338 345 350 348 346 346 349 353 353 352 351 349 350 350 350 348 349 350
309 306 309 314 316 320 320 324 327 326 322 329 337 338 343 349 349 345 343 345 350 351 351 348 345 346 345 344 344 344 345 346
305 307 314 317 319 320 319 321 322 324 322 323 336 344 345 347 348 343 342 342 341 349 349 348 345 344 343 342 341 340 340 339
301 306 313 317 321 322 320 323 323 322 322 323 339 340 341 346 344 345 342 340 335 346 349 348 345 343 343 341 340 338 336 334
304 308 311 315 320 320 321 321 322 326 319 325 334 337 340 341 341 342 340 335 333 336 339 346 345 343 341 339 337 335 333 331
306 308 310 318 320 323 323 322 331 329 318 319 329 334 337 338 338 338 337 334 330 329 330 333 334 342 339 336 334 332 331 328
306 309 310 318 317 324 329 325 327 327 326 329 333 334 333 332 331 330 332 329 328 327 326 331 329 335 333 333 329 325 323 324
311 314 314 319 321 324 323 322 323 325 325 330 332 330 327 324 325 326 325 326 325 325 326 326 327 322 318 317 313 312 311 310
316 319 323 322 321 326 321 317 322 321 322 328 327 326 324 326 326 322 322 323 323 324 324 323 320 319 317 314 311 311 309 308
320 325 323 321 321 322 322 322 327 327 325 325 324 322 324 322 319 321 322 322 323 323 322 322 318 316 314 312 309 308 308 306
323 323 322 320 319 321 321 327 329 329 325 322 320 319 321 321 322 322 322 323 324 323 320 320 316 313 311 308 307 307 306 306
320 319 320 318 318 322 323 329 327 328 327 325 321 318 319 322 321 321 322 321 320 317 315 317 314 310 308 306 306 305 305 305
315 316 318 321 316 318 325 328 326 327 327 321 321 321 321 323 322 322 319 317 317 315 312 314 311 310 308 307 306 304 304 304
311 315 317 316 308 319 326 326 323 326 323 320 320 321 323 323 321 319 316 314 314 316 311 311 309 308 308 306 304 304 303 304
310 315 314 312 311 319 325 323 313 316 318 319 319 321 323 323 320 319 316 312 312 311 309 309 307 307 306 305 303 303 303 303
305 311 312 310 312 318 321 320 313 315 317 318 319 320 323 322 320 319 315 313 313 311 309 307 307 305 304 303 303 303 303 303
306 314 310 309 310 316 320 320 314 313 316 318 319 323 323 320 319 317 315 313 312 310 310 309 304 303 302 300 301 301 302 304
308 313 310 308 308 312 318 319 319 314 316 318 319 320 320 319 318 316 314 312 310 311 312 310 306 305 303 302 302 302 302 303
305 310 311 308 305 309 312 320 321 318 317 319 320 319 319 317 316 316 314 313 311 310 309 306 305 304 302 301 300 300 300 301
307 304 298 306 296 302 308 313 317 319 315 318 320 321 319 318 315 316 314 315 312 309 308 305 304 302 300 298 298 299 300 301
Wind_Speed
4 3 4 4 3 3 11 14 2 4 4 4 3 8 8 9 9 7 6 4 7 14 16 18 20 20 19 20 20 20 17 16
5 3 2 4 5 5 3 3 8 6 6 5 5 7 7 13 11 9 6 5 10 15 16 18 19 19 20 21 21 22 23 19
4 5 5 3 1 7 4 1 5 2 4 3 3 13 15 12 10 9 6 5 7 14 15 16 18 18 19 19 19 20 20 20
1 4 2 5 5 6 3 2 5 11 7 2 10 14 11 10 7 6 8 6 6 12 13 15 17 17 17 18 18 19 20 19
5 3 5 5 7 7 6 6 5 8 5 4 7 9 11 8 6 5 5 5 4 4 9 15 15 16 16 17 17 18 19 18
4 5 4 5 6 9 8 3 10 10 6 7 8 12 11 8 5 5 5 4 4 5 5 6 5 14 16 16 17 18 18 18
5 7 3 5 5 5 4 10 4 5 5 12 17 14 12 8 5 5 4 2 4 5 5 6 5 8 12 16 18 17 14 17
8 8 6 7 8 12 6 11 2 9 13 17 19 16 15 12 10 5 5 4 4 5 5 5 6 6 6 9 6 6 6 6
6 9 14 9 7 3 14 5 10 19 19 21 20 16 15 11 9 6 5 4 5 6 6 6 5 4 3 3 3 4 6 5
7 10 11 14 8 5 9 6 14 17 20 17 18 15 14 12 9 9 6 6 6 6 6 6 4 4 4 4 3 3 4 5
11 13 9 9 6 7 7 8 12 16 18 16 15 12 9 10 9 7 7 6 6 6 6 6 6 5 4 4 3 4 4 5
9 8 8 6 5 8 5 13 13 15 16 17 16 14 10 12 10 6 7 7 6 6 6 7 6 6 4 4 4 4 3 3
6 4 5 7 2 5 8 14 16 16 13 9 13 16 17 15 13 11 7 7 7 7 6 8 8 7 5 4 4 3 2 3
2 5 4 5 6 5 12 15 13 14 10 11 12 17 16 13 12 9 8 8 7 6 7 8 8 5 4 4 3 2 2 3
1 5 4 6 4 7 12 12 10 9 12 13 13 11 13 13 12 11 11 10 9 7 7 8 7 5 5 4 3 1 2 3
6 9 8 6 5 9 14 11 15 14 15 16 15 14 11 12 12 11 9 8 9 9 8 8 5 4 4 3 2 2 2 2
6 7 5 11 7 13 17 12 13 16 15 15 15 10 11 11 13 12 8 6 8 10 7 5 2 3 1 2 0 1 2 3
4 3 4 1 5 9 16 19 19 20 17 17 13 13 13 12 8 5 9 8 7 7 6 6 3 2 3 2 1 1 2 4
5 3 3 3 9 4 6 7 15 14 16 16 18 19 13 13 9 8 8 8 7 7 7 5 6 4 3 3 3 3 2 3
4 4 5 4 6 5 3 9 14 14 15 18 19 14 16 15 13 10 8 8 6 7 5 6 6 4 3 3 2 2 2 2
Wind_Direction
100 107 139 142 111 144 131 146 148 86 66 79 82 111 136 122 125 112 95 94 102 96 88 85 80 74 68 63 59 54 53 57
79 117 194 131 141 158 155 92 64 118 71 65 122 153 130 127 130 113 111 107 108 103 98 95 91 82 75 68 64 59 52 56
38 348 118 228 130 150 156 38 111 120 111 73 51 107 123 129 126 130 119 110 109 118 111 103 93 86 79 73 66 61 56 52
138 282 214 115 189 126 123 152 132 113 103 85 132 123 127 119 130 136 127 132 126 124 112 103 96 89 79 71 63 58 55 52
159 254 335 147 140 123 142 151 124 144 101 110 133 134 125 125 116 132 112 118 96 78 107 102 95 88 80 73 67 60 56 54
194 170 246 124 136 149 160 181 140 142 151 169 162 139 116 117 125 116 93 91 101 68 54 74 75 85 79 75 69 64 59 53
186 151 204 128 123 133 165 140 201 195 135 140 142 125 120 125 110 96 119 149 130 117 90 90 70 84 77 78 72 64 54 51
197 172 167 164 150 148 128 157 0 94 97 132 140 141 147 154 155 153 171 193 173 124 116 77 80 76 69 77 65 65 61 46
228 167 126 143 143 112 140 201 189 149 144 147 147 153 154 156 165 162 153 95 117 115 108 108 106 98 76 66 60 60 63 59
141 127 132 161 130 121 171 223 166 152 148 149 155 158 160 152 146 150 143 143 116 121 126 112 95 96 105 97 72 69 58 50
128 132 129 131 175 165 232 158 147 148 151 157 160 155 150 138 138 141 141 138 128 109 97 101 99 105 91 84 74 68 55 46
121 125 146 162 162 123 236 148 152 164 174 167 164 154 133 146 148 140 139 122 124 104 102 108 104 102 102 90 84 63 52 40
40 115 143 112 105 231 164 162 165 182 175 150 153 152 156 156 151 148 136 125 123 107 97 99 103 105 93 92 87 78 54 25
262 119 184 136 240 181 172 164 177 187 162 150 163 160 153 151 143 132 106 82 52 63 74 91 102 101 103 98 83 66 41 24
132 223 148 175 224 177 171 175 153 158 155 161 153 154 150 148 138 125 122 126 111 91 74 89 89 95 97 105 98 82 37 30
181 212 202 210 208 168 170 171 163 160 169 169 165 166 153 139 131 127 137 131 119 103 101 107 103 96 87 86 68 44 31 31
229 187 170 201 187 186 178 175 166 177 176 169 171 149 145 142 140 137 132 128 114 114 108 109 102 116 91 140 87 13 332 331
259 154 212 85 250 199 187 194 187 184 173 173 157 151 151 147 147 151 140 132 113 112 135 129 145 171 162 170 186 246 286 306
215 35 78 50 303 161 220 212 198 197 178 172 172 167 163 156 149 146 149 126 124 123 125 111 112 109 70 53 24 338 318 312
178 101 236 137 261 287 212 222 204 186 173 178 183 162 160 160 160 165 146 118 128 123 122 117 128 117 144 146 164 249 278 294